BAW910 EGLL-EDDF

Flight info

Callsign BAW910
Flight time 1h 11m
Altitude 35000
Route BPK Q295 MATCH DCT REDFA DCT TACHA DCT NOLRU DCT DIXAT DIXAT1A
Aircraft A320/M-SDE3FGHIRWY/LB1

Departure

Time 2026-05-05 12:10
Airport London Heathrow Airport (EGLL)

Arrival

Time 2026-05-05 13:22
Airport Frankfurt Main Airport (EDDF)
Time Latitude Longitude Altitude Speed Heading
2026-05-05 11:41 51.47133 -0.48622 77 ft 0 kts 269°
2026-05-05 11:54 51.47133 -0.48597 91 ft 4 kts 268°
2026-05-05 11:55 51.47135 -0.48556 91 ft 4 kts 263°
2026-05-05 11:55 51.47139 -0.48516 92 ft 4 kts 251°
2026-05-05 11:55 51.47150 -0.48482 90 ft 4 kts 212°
2026-05-05 11:55 51.47160 -0.48475 89 ft 1 kts 180°
2026-05-05 11:58 51.47158 -0.48475 89 ft 2 kts 180°
2026-05-05 11:58 51.47124 -0.48475 88 ft 7 kts 180°
2026-05-05 11:58 51.47070 -0.48474 87 ft 9 kts 180°
2026-05-05 11:59 51.47005 -0.48474 87 ft 10 kts 180°
2026-05-05 11:59 51.46926 -0.48473 87 ft 12 kts 180°
2026-05-05 11:59 51.46837 -0.48472 89 ft 12 kts 180°
2026-05-05 11:59 51.46824 -0.48472 88 ft 0 kts 180°
2026-05-05 12:00 51.46802 -0.48473 90 ft 9 kts 180°
2026-05-05 12:00 51.46731 -0.48472 88 ft 11 kts 179°
2026-05-05 12:01 51.46648 -0.48471 87 ft 13 kts 178°
2026-05-05 12:01 51.46589 -0.48469 88 ft 0 kts 179°
2026-05-05 12:05 51.46585 -0.48469 91 ft 1 kts 179°
2026-05-05 12:07 51.46572 -0.48468 91 ft 5 kts 179°
2026-05-05 12:07 51.46514 -0.48468 89 ft 9 kts 181°
2026-05-05 12:07 51.46478 -0.48404 89 ft 10 kts 88°
2026-05-05 12:08 51.46479 -0.48383 90 ft 0 kts 88°
2026-05-05 12:09 51.46479 -0.48382 90 ft 0 kts 88°
2026-05-05 12:09 51.46480 -0.48298 89 ft 29 kts 89°
2026-05-05 12:09 51.46480 -0.47596 85 ft 94 kts 89°
2026-05-05 12:09 51.46488 -0.46275 88 ft 142 kts 90°
2026-05-05 12:10 51.46488 -0.44517 261 ft 165 kts 91°
2026-05-05 12:10 51.46462 -0.42645 860 ft 169 kts 89°
2026-05-05 12:10 51.46588 -0.40779 1491 ft 167 kts 69°
2026-05-05 12:10 51.47174 -0.39222 2123 ft 162 kts 47°
2026-05-05 12:11 51.47970 -0.37911 2616 ft 168 kts 44°
2026-05-05 12:11 51.48823 -0.36452 2822 ft 191 kts 47°
2026-05-05 12:11 51.49757 -0.34779 3125 ft 210 kts 47°
2026-05-05 12:11 51.50770 -0.32921 3610 ft 227 kts 49°
2026-05-05 12:12 51.51822 -0.30939 4203 ft 243 kts 53°
2026-05-05 12:12 51.52614 -0.28482 4893 ft 254 kts 70°
2026-05-05 12:12 51.53202 -0.25764 5668 ft 261 kts 71°
2026-05-05 12:12 51.53931 -0.23075 5933 ft 265 kts 57°
2026-05-05 12:13 51.55170 -0.20902 6002 ft 265 kts 36°
2026-05-05 12:13 51.56829 -0.19626 6013 ft 266 kts 18°
2026-05-05 12:13 51.58572 -0.18626 6050 ft 267 kts 23°
2026-05-05 12:13 51.60345 -0.17648 6733 ft 270 kts 18°
2026-05-05 12:14 51.62147 -0.16726 7593 ft 273 kts 18°
2026-05-05 12:14 51.63974 -0.15816 8398 ft 277 kts 17°
2026-05-05 12:14 51.65832 -0.14920 9206 ft 281 kts 16°
2026-05-05 12:14 51.67726 -0.14027 9979 ft 285 kts 16°
2026-05-05 12:15 51.69665 -0.13071 10393 ft 302 kts 21°
2026-05-05 12:15 51.71601 -0.11469 10555 ft 325 kts 34°
2026-05-05 12:15 51.73353 -0.09043 10686 ft 348 kts 47°
2026-05-05 12:15 51.74788 -0.05735 11000 ft 362 kts 62°
2026-05-05 12:16 51.75660 -0.01945 11563 ft 368 kts 77°
2026-05-05 12:16 51.76050 0.02158 12182 ft 372 kts 82°
2026-05-05 12:16 51.76391 0.06309 12828 ft 375 kts 82°
2026-05-05 12:16 51.76737 0.10513 13492 ft 378 kts 82°
2026-05-05 12:17 51.77085 0.14742 14077 ft 382 kts 82°
2026-05-05 12:17 51.77436 0.19014 14648 ft 385 kts 82°
2026-05-05 12:17 51.77788 0.23311 15200 ft 388 kts 82°
2026-05-05 12:17 51.78334 0.27605 15742 ft 392 kts 75°
2026-05-05 12:18 51.79022 0.31882 16299 ft 395 kts 75°
2026-05-05 12:18 51.79716 0.36191 16868 ft 398 kts 75°
2026-05-05 12:18 51.80415 0.40547 17449 ft 402 kts 76°
2026-05-05 12:18 51.81113 0.44932 18023 ft 405 kts 76°
2026-05-05 12:19 51.81805 0.49310 18558 ft 409 kts 76°
2026-05-05 12:19 51.82510 0.53778 19056 ft 412 kts 76°
2026-05-05 12:19 51.83219 0.58289 19561 ft 416 kts 76°
2026-05-05 12:19 51.83935 0.62832 20052 ft 419 kts 76°
2026-05-05 12:20 51.84656 0.67412 20538 ft 422 kts 77°
2026-05-05 12:20 51.85377 0.72026 20987 ft 425 kts 77°
2026-05-05 12:20 51.86101 0.76674 21423 ft 428 kts 77°
2026-05-05 12:20 51.86828 0.81356 21846 ft 430 kts 77°
2026-05-05 12:21 51.87558 0.86072 22265 ft 433 kts 77°
2026-05-05 12:21 51.88288 0.90815 22669 ft 436 kts 77°
2026-05-05 12:21 51.89021 0.95593 23066 ft 438 kts 77°
2026-05-05 12:21 51.89758 1.00393 23452 ft 441 kts 77°
2026-05-05 12:22 51.90498 1.05224 23779 ft 443 kts 77°
2026-05-05 12:22 51.91239 1.10079 24083 ft 446 kts 77°
2026-05-05 12:22 51.91983 1.14960 24389 ft 448 kts 77°
2026-05-05 12:22 51.92734 1.19886 24690 ft 450 kts 77°
2026-05-05 12:23 51.93481 1.24810 25009 ft 452 kts 78°
2026-05-05 12:23 51.94231 1.29787 25320 ft 455 kts 78°
2026-05-05 12:23 51.94979 1.34784 25621 ft 457 kts 78°
2026-05-05 12:23 51.95727 1.39804 25923 ft 459 kts 78°
2026-05-05 12:24 51.96477 1.44844 26243 ft 461 kts 78°
2026-05-05 12:24 51.97228 1.49887 26673 ft 460 kts 78°
2026-05-05 12:24 51.97976 1.54935 27108 ft 459 kts 78°
2026-05-05 12:24 51.98709 1.59898 27517 ft 459 kts 78°
2026-05-05 12:25 51.99450 1.64917 27950 ft 458 kts 78°
2026-05-05 12:25 52.00193 1.69959 28388 ft 458 kts 79°
2026-05-05 12:25 52.00930 1.74984 28831 ft 457 kts 79°
2026-05-05 12:25 52.01663 1.79995 29261 ft 457 kts 79°
2026-05-05 12:26 52.02396 1.85011 29706 ft 456 kts 79°
2026-05-05 12:26 52.03124 1.90032 30134 ft 456 kts 79°
2026-05-05 12:26 52.03848 1.95044 30506 ft 455 kts 79°
2026-05-05 12:26 52.04569 2.00049 30899 ft 455 kts 79°
2026-05-05 12:27 52.05289 2.05052 31275 ft 455 kts 79°
2026-05-05 12:27 52.06007 2.10064 31672 ft 454 kts 79°
2026-05-05 12:27 52.06722 2.15065 32063 ft 454 kts 79°
2026-05-05 12:27 52.07433 2.20060 32451 ft 454 kts 79°
2026-05-05 12:28 52.08139 2.25052 32833 ft 453 kts 79°
2026-05-05 12:28 52.08842 2.30043 33225 ft 453 kts 78°
2026-05-05 12:28 52.09546 2.35033 33618 ft 453 kts 78°
2026-05-05 12:28 52.10239 2.39965 33999 ft 452 kts 78°
2026-05-05 12:29 52.10934 2.44947 34319 ft 452 kts 78°
2026-05-05 12:29 52.11640 2.49926 34629 ft 451 kts 77°
2026-05-05 12:29 52.12455 2.54864 34901 ft 452 kts 75°
2026-05-05 12:29 52.13373 2.59773 34974 ft 455 kts 73°
2026-05-05 12:30 52.15387 2.69711 34985 ft 469 kts 72°
2026-05-05 12:30 52.17411 2.79894 34983 ft 474 kts 73°
2026-05-05 12:31 52.19349 2.90181 34984 ft 475 kts 74°
2026-05-05 12:31 52.21248 3.00506 34979 ft 475 kts 74°
2026-05-05 12:32 52.23151 3.10829 34979 ft 476 kts 74°
2026-05-05 12:32 52.24425 3.21353 34975 ft 472 kts 90°
2026-05-05 12:33 52.23677 3.31814 34970 ft 466 kts 109°
2026-05-05 12:33 52.21416 3.41688 34965 ft 465 kts 114°
2026-05-05 12:34 52.19058 3.51518 34959 ft 465 kts 114°
2026-05-05 12:34 52.16699 3.61347 34959 ft 466 kts 114°
2026-05-05 12:35 52.14331 3.71169 34958 ft 466 kts 114°
2026-05-05 12:35 52.11944 3.80969 34961 ft 466 kts 114°
2026-05-05 12:36 52.09551 3.90767 34954 ft 466 kts 115°
2026-05-05 12:36 52.07152 4.00551 34943 ft 466 kts 115°
2026-05-05 12:37 52.04758 4.10255 34937 ft 466 kts 115°
2026-05-05 12:37 52.02344 4.20015 34943 ft 465 kts 115°
2026-05-05 12:38 51.99924 4.29756 34935 ft 465 kts 116°
2026-05-05 12:38 51.97499 4.39480 34933 ft 465 kts 116°
2026-05-05 12:39 51.95063 4.49187 34931 ft 464 kts 116°
2026-05-05 12:39 51.92629 4.58867 34930 ft 464 kts 116°
2026-05-05 12:40 51.90179 4.68545 34937 ft 464 kts 117°
2026-05-05 12:40 51.87725 4.78229 34935 ft 464 kts 117°
2026-05-05 12:41 51.85265 4.87895 34934 ft 464 kts 117°
2026-05-05 12:41 51.82795 4.97533 34936 ft 464 kts 117°
2026-05-05 12:42 51.80325 5.07112 34926 ft 464 kts 117°
2026-05-05 12:42 51.77834 5.16739 34925 ft 465 kts 117°
2026-05-05 12:43 51.75334 5.26367 34930 ft 465 kts 117°
2026-05-05 12:43 51.72831 5.35984 34926 ft 465 kts 117°
2026-05-05 12:44 51.70321 5.45598 34923 ft 465 kts 117°
2026-05-05 12:44 51.67800 5.55186 34919 ft 465 kts 117°
2026-05-05 12:45 51.65262 5.64784 34922 ft 465 kts 117°
2026-05-05 12:45 51.62726 5.74364 34925 ft 465 kts 118°
2026-05-05 12:46 51.60179 5.83929 34928 ft 465 kts 118°
2026-05-05 12:46 51.57644 5.93412 34927 ft 465 kts 118°
2026-05-05 12:47 51.55088 6.02946 34928 ft 465 kts 118°
2026-05-05 12:47 51.52520 6.12467 34922 ft 465 kts 118°
2026-05-05 12:48 51.49941 6.21991 34918 ft 465 kts 118°
2026-05-05 12:48 51.47497 6.31632 34910 ft 467 kts 116°
2026-05-05 12:49 51.45169 6.41363 34901 ft 468 kts 115°
2026-05-05 12:49 51.42824 6.51111 34887 ft 468 kts 116°
2026-05-05 12:50 51.40431 6.60817 34885 ft 469 kts 116°
2026-05-05 12:50 51.38006 6.70506 34887 ft 469 kts 116°
2026-05-05 12:51 51.35578 6.80189 34890 ft 469 kts 116°
2026-05-05 12:51 51.33146 6.89867 34892 ft 469 kts 116°
2026-05-05 12:52 51.30723 6.99491 34861 ft 467 kts 116°
2026-05-05 12:52 51.29497 7.04350 34225 ft 466 kts 118°
2026-05-05 12:52 51.28067 7.08870 33457 ft 459 kts 127°
2026-05-05 12:53 51.26196 7.12934 32599 ft 452 kts 136°
2026-05-05 12:53 51.23955 7.16425 31685 ft 448 kts 145°
2026-05-05 12:53 51.21411 7.19263 30748 ft 445 kts 154°
2026-05-05 12:53 51.18653 7.21519 29716 ft 447 kts 157°
2026-05-05 12:54 51.13025 7.25939 27310 ft 454 kts 156°
2026-05-05 12:54 51.10185 7.28189 26120 ft 457 kts 155°
2026-05-05 12:54 51.07346 7.30498 24922 ft 459 kts 155°
2026-05-05 12:55 51.04508 7.32846 23809 ft 460 kts 154°
2026-05-05 12:55 51.01683 7.35204 23263 ft 457 kts 154°
2026-05-05 12:55 50.98879 7.37543 22995 ft 455 kts 154°
2026-05-05 12:55 50.96071 7.39879 22805 ft 454 kts 154°
2026-05-05 12:56 50.93304 7.42166 22865 ft 455 kts 154°
2026-05-05 12:56 50.90495 7.44473 22765 ft 454 kts 154°
2026-05-05 12:56 50.87715 7.46743 21947 ft 447 kts 154°
2026-05-05 12:56 50.84964 7.48986 21016 ft 442 kts 154°
2026-05-05 12:57 50.82243 7.51203 20149 ft 438 kts 154°
2026-05-05 12:57 50.79551 7.53395 19632 ft 427 kts 154°
2026-05-05 12:57 50.76955 7.55511 19248 ft 414 kts 154°
2026-05-05 12:57 50.74415 7.57582 18672 ft 409 kts 154°
2026-05-05 12:58 50.71899 7.59634 18078 ft 405 kts 154°
2026-05-05 12:58 50.69398 7.61666 17415 ft 402 kts 154°
2026-05-05 12:58 50.67753 7.63001 16961 ft 400 kts 154°
2026-05-05 12:58 50.65281 7.65000 16311 ft 398 kts 154°
2026-05-05 12:59 50.62822 7.66983 15739 ft 395 kts 154°
2026-05-05 12:59 50.60384 7.68944 15173 ft 392 kts 154°
2026-05-05 12:59 50.57972 7.70884 14695 ft 386 kts 154°
2026-05-05 13:00 50.53308 7.74647 13896 ft 369 kts 154°
2026-05-05 13:00 50.51042 7.76473 13448 ft 363 kts 154°
2026-05-05 13:01 50.44550 7.81691 12568 ft 331 kts 153°
2026-05-05 13:01 50.42630 7.83615 12304 ft 324 kts 143°
2026-05-05 13:01 50.40888 7.85792 11940 ft 319 kts 143°
2026-05-05 13:01 50.39152 7.87951 11487 ft 318 kts 143°
2026-05-05 13:02 50.37434 7.90084 11173 ft 313 kts 143°
2026-05-05 13:02 50.35733 7.92186 10872 ft 309 kts 143°
2026-05-05 13:02 50.34005 7.94315 10828 ft 326 kts 143°
2026-05-05 13:02 50.32197 7.96541 10832 ft 332 kts 143°
2026-05-05 13:03 50.30376 7.98776 10837 ft 334 kts 143°
2026-05-05 13:03 50.28547 8.01025 10842 ft 334 kts 143°
2026-05-05 13:03 50.26737 8.03302 10842 ft 335 kts 139°
2026-05-05 13:03 50.25209 8.06051 10847 ft 336 kts 128°
2026-05-05 13:04 50.23791 8.08952 10846 ft 336 kts 129°
2026-05-05 13:04 50.22370 8.11849 10851 ft 336 kts 129°
2026-05-05 13:04 50.20962 8.14710 10848 ft 336 kts 129°
2026-05-05 13:04 50.19515 8.17638 10845 ft 336 kts 129°
2026-05-05 13:05 50.18084 8.20525 10853 ft 336 kts 129°
2026-05-05 13:05 50.16654 8.23409 10854 ft 336 kts 129°
2026-05-05 13:05 50.15246 8.26254 10863 ft 336 kts 128°
2026-05-05 13:05 50.14075 8.29441 10854 ft 338 kts 109°
2026-05-05 13:06 50.13609 8.32998 10865 ft 340 kts 99°
2026-05-05 13:06 50.13484 8.36675 10864 ft 341 kts 91°
2026-05-05 13:06 50.13495 8.40375 10860 ft 341 kts 90°
2026-05-05 13:06 50.13762 8.44039 10859 ft 342 kts 79°
2026-05-05 13:07 50.14254 8.47680 10834 ft 343 kts 79°
2026-05-05 13:07 50.14745 8.51319 10835 ft 343 kts 79°
2026-05-05 13:07 50.15233 8.54956 10830 ft 343 kts 79°
2026-05-05 13:07 50.15721 8.58596 10837 ft 343 kts 79°
2026-05-05 13:08 50.16210 8.62228 10834 ft 343 kts 79°
2026-05-05 13:08 50.16706 8.65876 10834 ft 343 kts 79°
2026-05-05 13:08 50.17324 8.69472 10834 ft 344 kts 73°
2026-05-05 13:08 50.18140 8.72971 10704 ft 341 kts 71°
2026-05-05 13:09 50.18953 8.76381 10385 ft 333 kts 71°
2026-05-05 13:09 50.19767 8.79821 9545 ft 343 kts 71°
2026-05-05 13:09 50.20591 8.83326 8980 ft 343 kts 71°
2026-05-05 13:09 50.21410 8.86817 8813 ft 344 kts 71°
2026-05-05 13:10 50.22234 8.90336 8830 ft 345 kts 71°
2026-05-05 13:10 50.23057 8.93852 8835 ft 345 kts 71°
2026-05-05 13:10 50.23880 8.97380 8828 ft 346 kts 71°
2026-05-05 13:10 50.24661 9.00918 8662 ft 342 kts 77°
2026-05-05 13:11 50.24946 9.04564 8125 ft 337 kts 87°
2026-05-05 13:11 50.25349 9.08171 7597 ft 337 kts 78°
2026-05-05 13:11 50.25910 9.11709 7089 ft 335 kts 77°
2026-05-05 13:11 50.26218 9.15278 6592 ft 330 kts 95°
2026-05-05 13:12 50.25535 9.18622 6126 ft 323 kts 124°
2026-05-05 13:12 50.23921 9.20974 5664 ft 318 kts 154°
2026-05-05 13:12 50.21806 9.21760 5181 ft 314 kts 183°
2026-05-05 13:12 50.19759 9.20761 4862 ft 308 kts 214°
2026-05-05 13:13 50.18406 9.18316 4820 ft 294 kts 246°
2026-05-05 13:13 50.18057 9.15278 4830 ft 280 kts 271°
2026-05-05 13:13 50.18220 9.12334 4824 ft 266 kts 272°
2026-05-05 13:13 50.18087 9.09568 4868 ft 247 kts 254°
2026-05-05 13:14 50.17407 9.07243 4960 ft 236 kts 241°
2026-05-05 13:14 50.16733 9.04878 4995 ft 236 kts 248°
2026-05-05 13:14 50.16172 9.02500 5000 ft 236 kts 249°
2026-05-05 13:14 50.15616 9.00091 4994 ft 227 kts 249°
2026-05-05 13:15 50.15099 8.97872 4993 ft 217 kts 249°
2026-05-05 13:15 50.14584 8.95673 4995 ft 215 kts 248°
2026-05-05 13:15 50.14072 8.93487 5025 ft 212 kts 248°
2026-05-05 13:15 50.13585 8.91409 5012 ft 197 kts 248°
2026-05-05 13:16 50.13121 8.89434 5000 ft 193 kts 248°
2026-05-05 13:16 50.12661 8.87475 5002 ft 192 kts 248°
2026-05-05 13:16 50.12196 8.85502 4889 ft 197 kts 248°
2026-05-05 13:16 50.11713 8.83451 4630 ft 203 kts 248°
2026-05-05 13:17 50.11231 8.81404 4349 ft 199 kts 249°
2026-05-05 13:17 50.10757 8.79391 4061 ft 199 kts 249°
2026-05-05 13:17 50.10288 8.77403 3786 ft 188 kts 249°
2026-05-05 13:17 50.09852 8.75560 3532 ft 176 kts 249°
2026-05-05 13:18 50.09436 8.73802 3284 ft 170 kts 249°
2026-05-05 13:18 50.09029 8.72081 3054 ft 168 kts 249°
2026-05-05 13:18 50.08625 8.70375 2810 ft 167 kts 249°
2026-05-05 13:18 50.08222 8.68676 2581 ft 171 kts 249°
2026-05-05 13:19 50.07804 8.66913 2340 ft 175 kts 249°
2026-05-05 13:19 50.07382 8.65134 2087 ft 175 kts 249°
2026-05-05 13:19 50.06967 8.63390 1845 ft 169 kts 249°
2026-05-05 13:19 50.06586 8.61787 1606 ft 151 kts 249°
2026-05-05 13:20 50.06231 8.60291 1395 ft 144 kts 249°
2026-05-05 13:20 50.05884 8.58836 1188 ft 142 kts 249°
2026-05-05 13:20 50.05542 8.57403 991 ft 140 kts 249°
2026-05-05 13:20 50.05202 8.55985 791 ft 140 kts 249°
2026-05-05 13:21 50.04872 8.54567 586 ft 140 kts 248°
2026-05-05 13:21 50.04533 8.53145 401 ft 138 kts 248°
2026-05-05 13:21 50.04213 8.51832 334 ft 112 kts 249°
2026-05-05 13:21 50.04000 8.50954 325 ft 63 kts 250°
2026-05-05 13:22 50.03905 8.50562 322 ft 16 kts 246°
2026-05-05 13:22 50.03842 8.50397 321 ft 19 kts 229°
2026-05-05 13:22 50.03737 8.50247 319 ft 22 kts 219°
2026-05-05 13:22 50.03656 8.50185 323 ft 9 kts 163°
2026-05-05 13:23 50.03629 8.50273 325 ft 10 kts 83°
2026-05-05 13:23 50.03649 8.50376 324 ft 10 kts 68°
2026-05-05 13:23 50.03680 8.50494 326 ft 15 kts 68°
2026-05-05 13:23 50.03724 8.50688 328 ft 23 kts 71°
2026-05-05 13:24 50.03757 8.50925 335 ft 22 kts 102°
2026-05-05 13:24 50.03699 8.51141 347 ft 22 kts 116°
2026-05-05 13:24 50.03627 8.51364 357 ft 25 kts 117°
2026-05-05 13:24 50.03548 8.51612 359 ft 26 kts 116°
2026-05-05 13:25 50.03516 8.51852 355 ft 11 kts 68°
2026-05-05 13:25 50.03529 8.52002 347 ft 17 kts 83°
2026-05-05 13:25 50.03544 8.52212 346 ft 22 kts 84°
2026-05-05 13:25 50.03588 8.52458 339 ft 23 kts 71°
2026-05-05 13:26 50.03600 8.52641 341 ft 13 kts 81°
2026-05-05 13:26 50.03632 8.52778 348 ft 14 kts 68°
2026-05-05 13:26 50.03587 8.52912 338 ft 17 kts 123°
2026-05-05 13:26 50.03557 8.53063 339 ft 16 kts 128°
2026-05-05 13:27 50.03558 8.53225 338 ft 17 kts 67°
2026-05-05 13:27 50.03606 8.53396 340 ft 18 kts 66°
2026-05-05 13:27 50.03646 8.53586 348 ft 19 kts 69°
2026-05-05 13:27 50.03696 8.53788 348 ft 21 kts 68°
2026-05-05 13:28 50.03747 8.54007 347 ft 22 kts 70°
2026-05-05 13:28 50.03805 8.54241 348 ft 24 kts 67°
2026-05-05 13:28 50.03863 8.54372 352 ft 13 kts 62°
2026-05-05 13:28 50.03895 8.54500 357 ft 13 kts 70°
2026-05-05 13:29 50.03930 8.54646 354 ft 16 kts 70°
2026-05-05 13:29 50.03969 8.54817 358 ft 18 kts 72°
2026-05-05 13:29 50.04014 8.55010 360 ft 19 kts 67°
2026-05-05 13:29 50.04062 8.55202 356 ft 19 kts 69°
2026-05-05 13:30 50.04111 8.55407 359 ft 21 kts 69°
2026-05-05 13:30 50.04164 8.55624 354 ft 22 kts 70°
2026-05-05 13:30 50.04216 8.55844 357 ft 22 kts 69°
2026-05-05 13:30 50.04271 8.56061 359 ft 22 kts 70°
2026-05-05 13:31 50.04315 8.56247 362 ft 18 kts 70°
2026-05-05 13:31 50.04357 8.56432 363 ft 18 kts 70°
2026-05-05 13:31 50.04400 8.56614 364 ft 18 kts 70°
2026-05-05 13:31 50.04442 8.56794 365 ft 17 kts 69°
2026-05-05 13:32 50.04485 8.56973 362 ft 19 kts 70°
2026-05-05 13:32 50.04533 8.57170 362 ft 20 kts 69°
2026-05-05 13:32 50.04582 8.57375 359 ft 21 kts 69°
2026-05-05 13:32 50.04632 8.57582 362 ft 21 kts 70°
2026-05-05 13:33 50.04677 8.57770 365 ft 11 kts 69°
2026-05-05 13:33 50.04707 8.57886 361 ft 12 kts 62°
2026-05-05 13:33 50.04767 8.57971 358 ft 12 kts 41°
2026-05-05 13:33 50.04809 8.58077 359 ft 12 kts 69°
2026-05-05 13:34 50.04836 8.58189 362 ft 10 kts 70°
2026-05-05 13:34 50.04861 8.58298 363 ft 11 kts 71°
2026-05-05 13:34 50.04888 8.58412 361 ft 11 kts 69°
2026-05-05 13:34 50.04916 8.58524 360 ft 12 kts 69°
2026-05-05 13:35 50.04945 8.58578 360 ft 5 kts
2026-05-05 13:35 50.04983 8.58560 363 ft 6 kts 333°
2026-05-05 13:35 50.05009 8.58542 363 ft 4 kts 338°
2026-05-05 13:35 50.05026 8.58532 361 ft 1 kts 341°
2026-05-05 13:36 50.05027 8.58532 361 ft 0 kts 341°